Date,TemperatureHighF,TemperatureAvgF,TemperatureLowF,DewpointHighF,DewpointAvgF,DewpointLowF,HumidityHigh,HumidityAvg,HumidityLow,PressureMaxIn,PressureMinIn,WindSpeedMaxMPH,WindSpeedAvgMPH,GustSpeedMaxMPH,PrecipitationSumIn
2013-1-1,26,23,20,19,15,13,77,72,64,30.19,30.08,9,4,14,0.00
2013-1-2,27,25,21,23,19,13,83,78,72,30.19,30.11,7,2,12,0.00
2013-1-3,30,26,20,26,21,13,88,80,72,30.18,30.05,10,3,17,0.00
2013-1-4,34,30,27,26,24,20,86,78,71,30.18,30.05,14,6,24,0.01
2013-1-5,38,31,24,32,27,21,93,84,63,30.23,29.95,9,2,14,0.01
2013-1-6,37,34,31,34,30,25,93,85,72,30.28,29.85,13,5,18,0.23
2013-1-7,38,33,29,27,24,17,84,70,43,30.31,30.10,13,5,21,0.00
2013-1-8,39,33,28,30,27,24,85,77,67,30.20,30.07,6,2,12,0.01
2013-1-9,45,40,33,35,31,26,80,71,52,30.42,29.97,14,5,31,0.00
2013-1-10,46,35,24,34,28,22,92,76,50,30.54,30.04,6,2,16,0.30
2013-1-11,52,46,36,51,44,34,96,93,90,30.03,29.70,10,3,20,0.54
2013-1-12,57,48,37,49,42,32,91,78,59,29.94,29.72,15,4,26,0.04
2013-1-13,37,31,25,33,28,19,93,88,78,30.12,29.82,10,5,18,0.14
2013-1-14,26,22,19,19,16,15,86,79,70,30.45,30.12,12,3,20,0.00
2013-1-15,31,25,19,21,18,16,90,77,61,30.44,30.15,6,1,9,0.00
2013-1-16,35,29,20,30,22,16,88,78,58,30.15,29.79,15,5,25,0.00
2013-1-17,35,27,21,29,17,9,78,66,56,30.36,29.98,16,7,26,0.00
2013-1-18,41,29,18,31,19,10,85,67,58,30.42,29.88,14,5,24,0.00
2013-1-19,45,42,39,37,33,21,77,71,46,29.88,29.58,17,8,37,0.00
2013-1-20,34,18,15,22,11,9,85,76,53,30.23,29.64,30,8,46,0.00
2013-1-21,16,11,3,12,7,-1,94,85,82,30.20,30.06,15,7,21,0.00
2013-1-22,8,4,0,4,0,-4,85,84,82,30.34,30.20,9,3,13,0.00
2013-1-23,18,11,2,15,8,-1,90,86,84,30.34,30.10,9,2,15,0.00
2013-1-24,17,10,-3,11,5,-7,87,82,72,30.66,30.24,5,1,9,0.05
2013-1-25,22,18,13,19,14,7,90,84,77,30.47,29.97,6,1,12,0.00
2013-1-26,28,24,19,22,19,16,89,82,65,30.42,30.05,8,2,12,0.00
2013-1-27,31,26,21,29,21,17,91,80,67,30.42,30.00,7,2,15,0.00
2013-1-28,44,36,30,42,34,28,95,91,85,30.00,29.80,9,2,17,0.09
2013-1-29,55,47,32,54,45,30,95,94,91,29.93,29.33,8,3,14,1.25
2013-1-30,49,38,24,47,37,21,97,93,85,29.35,29.08,20,5,26,0.40
2013-1-31,24,19,16,22,16,13,95,88,79,29.92,29.37,16,6,26,0.00
2013-2-1,16,14,12,13,11,8,89,87,83,30.25,29.93,9,4,15,0.00
2013-2-2,17,14,3,15,10,-1,90,84,70,30.16,30.00,8,2,10,0.00
2013-2-3,19,14,4,16,10,0,89,85,81,30.03,29.89,12,2,20,0.00
2013-2-4,22,16,6,16,12,3,89,84,74,30.02,29.89,8,2,10,0.00
2013-2-5,29,18,1,26,15,-3,90,86,77,30.01,29.77,10,3,17,0.00
2013-2-6,34,24,10,23,18,7,91,77,61,30.25,30.02,6,1,12,0.21
2013-2-7,33,30,28,30,26,21,94,85,73,30.20,29.85,9,3,13,0.07
2013-2-8,32,26,12,28,22,8,94,85,68,30.37,29.85,10,5,15,0.10
2013-2-9,33,18,-1,22,12,-5,91,78,62,30.43,30.20,6,1,12,0.10
2013-2-10,42,30,18,40,26,15,93,85,73,30.19,29.52,9,2,20,0.32
2013-2-11,44,35,30,42,31,24,93,83,73,29.87,29.47,15,8,36,0.08
2013-2-12,30,28,27,25,23,21,83,79,74,30.04,29.87,10,4,20,0.00
2013-2-13,38,30,23,30,25,20,90,82,67,29.90,29.71,8,2,12,0.02
2013-2-14,40,33,27,34,30,23,93,89,76,29.89,29.60,12,4,20,0.12
2013-2-15,28,24,21,23,17,13,88,75,59,30.14,29.89,13,5,17,0.00
2013-2-16,21,18,10,17,13,7,90,83,67,30.12,30.04,12,4,17,0.00
2013-2-17,25,13,-2,12,6,-6,88,73,52,30.24,30.12,5,1,9,0.01
2013-2-18,45,34,19,41,24,11,91,67,55,30.13,29.39,9,4,21,0.17
2013-2-19,43,25,17,40,22,13,91,88,83,29.98,29.33,12,7,24,0.09
2013-2-20,22,19,15,16,13,10,87,78,69,30.30,29.98,15,9,25,0.00
2013-2-21,26,23,20,19,16,14,86,76,69,30.38,30.15,18,7,25,0.00
2013-2-22,33,26,20,31,23,14,93,88,78,30.16,29.83,15,4,23,0.02
2013-2-23,32,29,25,28,25,21,92,85,72,29.89,29.81,9,4,17,0.00
2013-2-24,38,30,22,28,24,19,90,78,59,30.14,29.87,9,3,14,0.10
2013-2-25,41,28,13,28,20,10,92,75,52,30.22,30.07,9,1,10,0.01
2013-2-26,35,32,28,31,25,22,94,78,66,30.09,29.50,24,12,32,0.02
2013-2-27,36,34,32,34,32,31,94,94,93,29.60,29.47,9,4,14,0.19
2013-2-28,36,33,30,32,29,24,94,83,75,30.00,29.60,12,7,16,0.01
2013-3-1,30,26,20,24,19,15,79,72,63,30.16,30.00,12,5,15,0.00
2013-3-2,29,21,14,18,14,11,87,75,59,30.17,30.09,14,4,17,0.00
2013-3-3,32,20,8,19,13,5,89,75,53,30.11,30.02,9,2,14,0.00
2013-3-4,35,21,7,18,13,4,89,71,42,30.18,30.07,7,1,12,0.00
2013-3-5,33,26,19,23,19,13,84,73,63,30.11,29.85,17,8,23,0.00
2013-3-6,38,33,27,29,27,23,87,78,66,30.22,29.95,13,5,22,0.00
2013-3-7,35,31,22,29,24,18,87,74,56,30.41,30.21,10,4,14,0.00
2013-3-8,41,29,16,25,20,13,90,72,49,30.50,30.37,6,1,10,0.00
2013-3-9,43,36,26,34,27,20,86,70,56,30.37,29.92,10,2,17,0.01
2013-3-10,49,44,41,44,39,33,95,83,65,29.91,29.65,9,2,12,0.30
2013-3-11,52,44,34,47,41,32,94,90,75,29.65,29.44,12,3,20,0.26
2013-3-12,35,32,29,33,27,23,93,82,69,29.87,29.62,12,5,20,0.02
2013-3-13,31,27,23,25,19,14,90,73,53,30.24,29.88,16,8,25,0.00
2013-3-14,38,30,20,25,20,16,86,66,45,30.27,30.06,7,2,13,0.00
2013-3-15,39,35,32,34,32,25,91,86,76,30.07,29.82,7,3,17,0.03
2013-3-16,34,29,25,30,24,19,92,80,59,30.07,29.74,14,7,20,0.04
2013-3-17,32,27,24,21,16,11,75,62,48,30.25,30.07,13,6,18,0.01
2013-3-18,34,28,22,31,24,16,93,83,72,30.11,29.56,15,5,22,0.03
2013-3-19,30,24,20,26,18,13,90,79,55,29.95,29.61,13,6,25,0.00
2013-3-20,27,21,14,16,14,10,88,73,55,29.98,29.92,13,6,21,0.01
2013-3-21,30,23,13,24,18,10,90,80,69,29.99,29.91,14,5,20,0.00
2013-3-22,35,30,26,24,21,18,82,70,58,30.04,29.98,8,3,16,0.02
2013-3-23,34,29,23,24,22,19,86,76,65,30.14,30.04,8,4,12,0.00
2013-3-24,37,31,24,26,23,20,90,74,59,30.05,29.69,20,8,28,0.00
2013-3-25,38,34,30,27,25,22,78,70,57,29.97,29.65,16,10,22,0.00
2013-3-26,40,34,30,34,29,26,90,81,70,30.16,29.97,12,5,16,0.04
2013-3-27,43,36,31,30,27,23,91,71,51,30.24,30.16,14,6,24,0.01
2013-3-28,47,37,28,30,25,21,89,63,41,30.30,30.24,12,3,16,0.00
2013-3-29,49,35,22,32,24,20,90,66,37,30.29,30.21,9,2,17,0.00
2013-3-30,56,39,22,35,26,20,92,64,30,30.22,29.85,9,2,15,0.01
2013-3-31,48,42,36,41,36,30,92,79,60,29.84,29.64,16,5,24,0.06
2013-4-1,36,30,26,30,17,13,86,60,48,30.10,29.74,18,8,32,0.00
2013-4-2,36,30,20,21,17,14,85,60,41,30.26,30.10,17,5,24,0.00
2013-4-3,44,31,21,21,18,12,83,59,29,30.45,30.25,12,3,17,0.00
2013-4-4,51,39,24,27,21,18,82,51,30,30.33,29.93,12,3,18,0.00
2013-4-5,47,39,31,28,23,15,76,55,28,30.18,29.94,13,5,17,0.00
2013-4-6,58,47,36,42,26,16,67,45,33,30.17,29.60,10,4,22,0.01
2013-4-7,55,44,32,47,36,28,88,74,59,29.99,29.52,15,6,27,0.11
2013-4-8,52,41,32,49,37,29,95,86,76,29.98,29.61,14,4,26,0.61
2013-4-9,47,42,39,45,40,37,95,93,90,30.04,29.83,13,4,35,1.31
2013-4-10,42,40,38,40,37,32,92,88,79,30.01,29.75,23,10,31,0.40
2013-4-11,38,36,35,34,33,30,91,88,72,29.95,29.61,25,12,43,1.23
2013-4-12,41,37,34,37,34,32,94,89,78,29.74,29.53,13,5,24,0.23
2013-4-13,39,36,34,35,30,25,93,79,59,29.95,29.73,14,5,27,0.12
2013-4-14,49,38,30,41,33,27,92,82,69,30.07,29.79,14,3,22,0.10
2013-4-15,64,54,44,54,47,36,92,77,68,29.90,29.76,10,3,22,0.57
2013-4-16,50,45,40,44,36,32,93,73,53,30.23,29.88,13,5,18,0.31
2013-4-17,50,45,41,42,36,31,92,73,54,30.31,29.90,18,8,33,1.23
2013-4-18,62,53,44,59,51,41,96,92,82,29.95,29.38,12,4,23,1.84
2013-4-19,59,39,33,56,33,24,91,80,65,29.74,29.38,17,8,42,0.15
2013-4-20,37,32,28,27,21,18,81,63,46,30.43,29.74,16,7,26,0.02
2013-4-21,53,39,24,32,24,19,89,58,33,30.58,30.37,8,2,17,0.00
2013-4-22,65,51,35,35,30,25,77,49,23,30.38,30.08,6,2,13,0.00
2013-4-23,63,50,40,49,40,30,92,70,41,30.08,29.80,10,3,14,0.43
2013-4-24,44,38,33,37,30,24,92,73,46,30.07,29.84,16,6,21,0.15
2013-4-25,48,42,36,38,32,27,91,70,49,30.30,30.00,16,5,25,0.17
2013-4-26,65,50,36,41,34,29,78,56,33,30.38,30.22,10,3,18,0.00
2013-4-27,70,58,42,46,40,32,86,56,26,30.26,30.01,7,2,13,0.00
2013-4-28,65,58,48,53,46,37,87,65,50,30.01,29.77,10,2,15,0.00
2013-4-29,70,58,44,56,50,42,94,76,55,29.89,29.77,8,2,14,0.00
2013-4-30,79,66,56,61,56,51,91,71,50,29.90,29.79,9,4,20,0.42
2013-5-1,85,73,62,60,57,53,78,59,34,30.10,29.91,6,2,15,0.00
2013-5-2,83,69,56,59,55,50,82,62,36,30.12,30.00,8,2,13,0.00
2013-5-3,80,65,52,59,52,38,91,67,32,30.05,29.90,8,2,18,0.00
2013-5-4,74,67,58,52,43,37,57,43,30,30.04,29.95,13,3,20,0.00
2013-5-5,75,64,54,48,41,29,59,44,21,30.04,29.94,14,3,22,0.00
2013-5-6,75,62,46,47,40,29,81,49,19,30.03,29.92,9,2,14,0.00
2013-5-7,78,64,47,55,46,42,90,56,32,30.03,29.93,9,2,15,0.00
2013-5-8,79,66,51,55,50,45,90,59,34,30.01,29.91,10,1,17,0.00
2013-5-9,80,64,48,51,47,39,91,61,24,29.95,29.83,7,1,18,0.01
2013-5-10,57,50,45,53,46,42,91,88,81,29.90,29.75,14,6,21,0.39
2013-5-11,52,45,37,47,41,34,92,85,64,29.93,29.73,20,4,32,0.17
2013-5-12,45,40,36,35,30,26,90,68,50,30.12,29.92,16,6,24,0.00
2013-5-13,52,42,28,34,27,21,92,61,30,30.19,30.05,10,2,16,0.00
2013-5-14,72,60,45,53,42,27,77,53,42,30.05,29.58,9,2,21,0.00
2013-5-15,75,68,53,59,50,41,81,55,35,29.78,29.51,12,3,18,0.00
2013-5-16,78,63,45,51,46,38,92,58,28,29.97,29.78,8,2,14,0.00
2013-5-17,67,60,53,48,43,37,63,54,35,30.09,29.97,13,5,18,0.00
2013-5-18,81,67,55,61,51,45,80,57,37,30.11,29.93,7,2,12,0.00
2013-5-19,86,73,58,64,56,46,70,56,42,29.96,29.77,6,1,15,0.00
2013-5-20,86,77,69,71,63,57,81,64,39,29.79,29.67,12,2,26,0.00
2013-5-21,79,71,63,65,62,60,93,75,56,29.73,29.63,10,3,26,0.36
2013-5-22,67,63,56,64,60,54,94,91,85,29.67,29.59,7,1,13,0.43
2013-5-23,56,51,43,54,47,36,95,88,70,30.24,29.66,17,6,22,0.42
2013-5-24,58,47,36,46,38,33,89,73,57,30.41,30.24,10,3,14,0.00
2013-5-25,64,51,37,42,38,34,94,64,33,30.43,30.28,9,2,12,0.00
2013-5-26,69,57,43,44,40,35,91,56,29,30.36,30.19,7,1,13,0.00
2013-5-27,60,54,51,50,44,37,92,69,49,30.21,29.93,9,2,23,0.07
2013-5-28,75,62,52,67,59,50,95,89,72,29.95,29.73,8,2,20,0.70
2013-5-29,79,68,60,67,63,58,94,85,61,29.96,29.76,7,2,20,0.14
2013-5-30,85,76,66,70,66,61,90,72,54,29.95,29.82,9,2,20,0.00
2013-5-31,79,73,65,68,65,61,93,76,58,29.87,29.74,9,3,20,0.25
2013-6-1,76,70,64,66,63,60,92,78,57,29.75,29.62,12,3,26,0.28
2013-6-2,63,54,45,61,49,40,94,83,68,30.03,29.61,14,5,20,0.03
2013-6-3,64,52,38,47,42,36,94,70,46,30.13,30.03,10,2,15,0.00
2013-6-4,70,59,44,52,46,42,93,65,44,30.20,30.10,9,2,12,0.00
2013-6-5,70,62,57,50,45,36,79,55,34,30.15,29.98,10,3,17,0.03
2013-6-6,64,58,54,54,51,47,87,76,61,30.00,29.88,10,4,14,0.06
2013-6-7,74,61,50,51,47,43,85,64,34,29.95,29.83,13,4,21,0.00
2013-6-8,74,63,50,55,50,45,92,66,38,30.02,29.89,6,1,9,0.00
2013-6-9,80,68,54,63,58,51,89,70,49,30.04,29.86,6,2,18,0.17
2013-6-10,71,66,62,65,62,56,93,86,68,29.87,29.73,9,3,13,0.26
2013-6-11,78,66,56,67,61,54,95,83,65,29.92,29.79,6,1,12,0.00
2013-6-12,76,67,61,68,63,59,94,87,74,29.92,29.61,12,2,26,0.66
2013-6-13,73,66,59,63,59,55,94,78,56,29.97,29.59,13,6,21,0.51
2013-6-14,76,64,54,58,54,50,89,71,41,30.11,29.97,9,3,14,0.00
2013-6-15,73,64,52,63,58,50,94,82,64,30.06,29.84,8,1,15,0.00
2013-6-16,77,69,61,66,62,57,94,80,55,29.86,29.77,10,3,20,1.35
2013-6-17,82,70,57,64,58,55,94,69,41,29.91,29.81,12,2,17,0.00
2013-6-18,71,63,56,59,51,43,88,67,39,30.07,29.89,13,5,20,0.00
2013-6-19,76,62,46,54,45,39,91,56,28,30.18,30.07,8,1,12,0.00
2013-6-20,83,67,49,61,52,46,94,64,34,30.19,30.08,5,1,12,0.00
2013-6-21,82,73,62,66,62,56,89,69,52,30.14,29.93,7,1,15,0.00
2013-6-22,86,75,67,70,67,63,90,76,54,30.07,29.92,7,1,12,0.00
2013-6-23,86,78,67,69,66,64,92,70,51,29.99,29.88,9,3,16,0.00
2013-6-24,83,76,70,70,66,62,85,73,54,30.01,29.82,8,2,24,0.00
2013-6-25,79,70,66,71,66,62,94,87,75,29.96,29.78,13,2,25,0.49
2013-6-26,83,74,65,71,67,63,94,80,57,29.83,29.68,6,1,12,0.00
2013-6-27,83,74,65,71,68,63,94,82,59,29.73,29.63,9,2,14,0.00
2013-6-28,77,69,64,67,63,61,94,82,61,29.64,29.54,12,2,20,0.21
2013-6-29,71,66,60,64,61,58,95,84,69,29.76,29.56,12,3,17,0.01
2013-6-30,79,70,60,64,58,51,93,68,38,29.98,29.76,14,4,24,0.00
2013-7-1,77,67,57,55,50,46,74,57,38,30.09,29.98,16,6,26,0.00
2013-7-2,65,62,58,61,53,40,89,75,43,30.10,30.05,10,4,14,0.14
2013-7-3,80,68,60,68,60,51,92,79,59,30.09,30.00,6,2,12,0.27
2013-7-4,78,69,61,65,62,58,94,78,50,30.12,30.05,6,1,10,0.00
2013-7-5,84,73,61,66,63,59,94,73,46,30.10,30.00,5,0,8,0.00
2013-7-6,85,72,64,69,65,61,93,79,54,30.07,29.95,6,0,9,0.00
2013-7-7,84,75,69,71,68,66,92,80,59,30.00,29.92,6,1,12,0.00
2013-7-8,77,74,69,72,70,67,92,86,77,29.99,29.92,7,1,16,0.03
2013-7-9,84,72,66,74,69,64,94,91,67,29.98,29.83,7,1,13,0.21
2013-7-10,78,74,60,74,66,56,94,76,53,29.97,29.78,14,5,22,0.00
2013-7-11,79,67,54,60,56,52,95,71,39,30.08,29.97,13,2,20,0.00
2013-7-12,82,69,57,61,56,50,89,67,34,30.17,30.05,8,2,12,0.00
2013-7-13,86,73,57,62,58,54,94,64,36,30.19,30.11,8,1,14,0.00
2013-7-14,91,78,62,70,65,59,93,69,41,30.23,30.16,6,1,10,0.00
2013-7-15,92,80,69,74,71,66,94,75,52,30.26,30.17,5,1,8,0.00
2013-7-16,89,81,72,76,73,70,94,76,58,30.28,30.20,6,1,13,0.00
2013-7-17,91,82,73,77,73,70,93,76,56,30.26,30.12,7,1,14,0.00
2013-7-18,92,83,73,76,72,70,92,72,53,30.14,29.88,7,2,15,0.00
2013-7-19,90,84,80,74,72,68,82,69,54,29.90,29.67,12,4,24,0.15
2013-7-20,84,76,65,71,62,55,89,64,41,29.95,29.70,10,2,17,0.00
2013-7-21,85,71,61,69,58,51,92,65,46,30.03,29.89,8,2,12,0.26
2013-7-22,86,74,66,70,67,63,94,79,54,29.94,29.72,6,1,13,0.02
2013-7-23,77,71,57,71,63,49,90,75,54,29.96,29.65,14,5,22,0.00
2013-7-24,74,61,48,55,49,45,93,68,40,30.08,29.97,9,2,14,0.00
2013-7-25,78,65,50,59,54,48,94,70,44,30.13,30.05,6,1,12,0.00
2013-7-26,75,67,59,63,59,51,93,77,60,30.07,29.88,7,1,15,0.27
2013-7-27,69,62,56,62,57,50,95,84,69,29.89,29.83,13,3,21,0.00
2013-7-28,66,59,53,57,54,50,94,84,62,29.98,29.83,8,2,16,0.33
2013-7-29,69,61,56,58,56,53,93,83,65,30.21,29.96,7,2,13,0.07
2013-7-30,80,66,49,63,56,47,97,73,48,30.26,30.11,5,1,8,0.01
2013-7-31,71,67,64,66,63,60,93,88,79,30.12,29.92,5,1,8,0.15
2013-8-1,76,68,61,65,60,53,95,77,47,29.95,29.92,14,2,20,0.01
2013-8-2,75,67,60,67,62,57,93,86,74,29.94,29.84,8,2,17,0.03
2013-8-3,77,67,57,63,57,52,95,73,46,30.09,29.92,13,3,17,0.01
2013-8-4,73,63,53,59,53,46,94,73,43,30.23,30.09,8,2,14,0.00
2013-8-5,73,61,48,61,54,46,95,80,56,30.14,29.94,5,0,9,0.00
2013-8-6,78,70,65,69,65,61,93,85,72,29.95,29.85,6,1,10,0.02
2013-8-7,81,73,64,73,67,61,93,83,68,29.94,29.80,15,3,21,0.14
2013-8-8,77,67,57,61,55,47,94,69,36,30.06,29.94,8,2,16,0.01
2013-8-9,79,68,54,62,58,52,94,73,49,30.03,29.97,8,1,16,0.00
2013-8-10,79,69,58,62,57,51,93,69,41,30.15,30.03,7,2,12,0.00
2013-8-11,77,67,59,61,58,55,92,74,49,30.14,30.05,6,1,10,0.00
2013-8-12,76,68,64,68,64,60,94,87,69,30.06,29.86,6,1,9,0.23
2013-8-13,68,61,53,60,51,46,90,71,50,30.15,29.91,14,5,20,0.00
2013-8-14,72,56,43,54,48,41,94,76,48,30.25,30.15,7,1,17,0.00
2013-8-15,75,60,46,61,52,44,95,77,47,30.19,30.11,7,1,14,0.00
2013-8-16,81,65,50,62,55,48,95,73,39,30.21,30.14,6,1,10,0.00
2013-8-17,84,68,51,63,54,49,95,67,31,30.25,30.15,8,1,12,0.01
2013-8-18,83,68,52,61,56,50,94,70,39,30.22,30.08,7,1,12,0.00
2013-8-19,82,68,51,63,57,49,94,73,45,30.11,30.01,6,1,13,0.00
2013-8-20,86,73,61,69,63,58,93,74,51,30.10,30.02,6,1,16,0.00
2013-8-21,88,77,66,70,66,63,90,71,49,30.06,29.91,8,2,15,0.00
2013-8-22,78,70,64,70,67,62,94,89,75,30.06,29.92,17,2,32,0.13
2013-8-23,82,70,52,64,55,48,95,63,32,30.18,30.06,9,2,13,0.01
2013-8-24,84,69,54,62,56,52,95,68,37,30.29,30.16,6,1,13,0.00
2013-8-25,88,75,62,66,62,58,87,66,48,30.24,30.08,9,2,18,0.00
2013-8-26,84,76,68,72,68,64,88,76,64,30.10,29.94,7,1,14,0.00
2013-8-27,90,81,73,76,73,70,94,78,56,29.95,29.75,8,2,18,0.44
2013-8-28,84,77,72,74,71,69,94,83,63,29.98,29.76,7,3,12,0.07
2013-8-29,89,77,67,71,67,61,95,75,39,30.06,29.95,6,1,10,0.01
2013-8-30,89,76,66,73,69,64,94,79,56,29.95,29.69,9,3,20,0.00
2013-8-31,80,71,63,67,64,61,94,79,60,29.83,29.76,8,2,12,0.00
2013-9-1,85,72,63,72,67,60,94,84,59,29.82,29.67,6,1,12,0.00
2013-9-2,71,65,60,69,59,52,93,80,65,29.95,29.72,12,4,20,0.01
2013-9-3,73,62,53,57,54,50,90,76,54,30.05,29.95,9,2,13,0.00
2013-9-4,80,67,55,64,59,52,94,78,51,30.09,30.00,9,2,16,0.01
2013-9-5,73,62,52,60,49,39,93,67,30,30.27,30.09,10,3,15,0.00
2013-9-6,81,64,47,58,51,45,93,68,31,30.26,30.00,6,1,12,0.00
2013-9-7,81,72,65,69,64,56,90,76,64,30.00,29.87,6,1,12,0.00
2013-9-8,78,70,65,65,61,56,94,76,49,30.06,29.92,13,3,18,0.01
2013-9-9,86,72,61,73,66,56,95,80,62,30.01,29.78,6,1,12,0.79
2013-9-10,92,84,76,73,68,64,84,62,41,29.92,29.79,10,3,20,0.00
2013-9-11,85,77,66,71,67,63,92,73,49,30.00,29.90,6,1,16,0.01
2013-9-12,76,67,57,66,58,49,94,74,48,30.03,29.88,13,4,20,0.02
2013-9-13,65,56,48,50,44,36,88,66,35,30.15,30.03,12,4,18,0.00
2013-9-14,69,54,38,54,46,36,94,77,46,30.21,30.05,7,1,14,0.00
2013-9-15,60,57,52,57,52,44,94,85,64,30.16,30.03,3,0,8,0.11
2013-9-16,61,55,46,55,48,43,94,79,57,30.38,30.16,8,4,14,0.00
2013-9-17,70,54,39,52,45,37,94,73,45,30.41,30.18,7,1,10,0.01
2013-9-18,79,65,53,60,54,49,86,70,48,30.18,29.94,7,1,13,0.00
2013-9-19,75,70,65,70,65,57,94,85,67,29.97,29.80,10,1,16,0.67
2013-9-20,73,70,63,70,66,59,94,87,82,29.81,29.69,7,2,16,0.10
2013-9-21,64,60,54,59,52,46,91,77,54,29.91,29.70,12,4,20,0.00
2013-9-22,55,52,45,49,45,42,93,79,65,30.10,29.91,8,2,12,0.00
2013-9-23,66,51,38,49,43,36,94,77,51,30.20,30.10,7,1,13,0.00
2013-9-24,69,55,43,52,47,41,93,77,51,30.15,29.98,8,1,17,0.01
2013-9-25,72,58,47,53,49,45,95,76,45,30.02,29.95,8,2,13,0.00
2013-9-26,76,59,45,54,48,43,94,72,32,30.12,29.99,7,1,10,0.01
2013-9-27,80,63,47,56,52,45,95,71,37,30.22,30.10,6,1,12,0.01
2013-9-28,81,68,55,60,55,52,92,66,40,30.14,29.90,6,1,17,0.00
2013-9-29,73,63,50,63,54,48,93,75,51,30.00,29.88,9,3,14,0.30
2013-9-30,72,59,48,57,52,46,94,79,46,30.00,29.89,6,1,12,0.00
2013-10-1,73,64,54,65,60,52,93,86,74,29.95,29.88,9,3,20,0.01
2013-10-2,77,64,51,62,50,38,95,68,25,30.10,29.90,7,1,10,0.01
2013-10-3,78,65,50,68,59,46,92,80,65,30.03,29.87,8,1,16,0.00
2013-10-4,78,70,66,68,66,64,93,86,70,29.97,29.87,6,2,12,0.07
2013-10-5,76,70,65,71,67,63,94,89,78,29.98,29.74,10,1,16,1.14
2013-10-6,71,60,51,67,57,48,93,89,72,29.76,29.66,6,1,13,0.33
2013-10-7,61,53,47,53,48,45,94,85,62,30.09,29.67,14,2,20,0.24
2013-10-8,73,58,44,54,48,42,94,74,48,30.24,30.09,5,0,13,0.01
2013-10-9,72,58,45,52,48,42,94,72,43,30.29,30.17,6,0,9,0.00
2013-10-10,73,56,43,54,47,40,94,75,40,30.22,30.09,3,0,9,0.00
2013-10-11,72,57,43,52,46,41,94,72,36,30.15,30.02,8,1,12,0.00
2013-10-12,78,64,52,62,54,46,93,72,46,30.08,29.96,8,1,17,0.35
2013-10-13,62,53,44,57,47,41,95,81,57,30.39,30.08,9,2,16,0.01
2013-10-14,62,49,38,47,40,36,95,73,41,30.44,30.24,8,2,14,0.01
2013-10-15,65,56,46,61,51,42,94,85,73,30.24,29.76,7,1,17,0.39
2013-10-16,62,54,52,59,50,47,94,86,80,29.88,29.78,7,2,14,0.20
2013-10-17,53,50,42,51,48,40,97,93,87,29.88,29.74,9,2,16,0.57
2013-10-18,60,48,40,51,44,39,95,84,69,29.90,29.83,9,2,16,0.01
2013-10-19,54,47,42,44,41,34,93,81,48,29.88,29.74,7,1,33,0.24
2013-10-20,56,48,38,49,42,37,95,79,52,29.88,29.72,6,1,13,0.13
2013-10-21,54,48,41,52,41,28,93,77,58,29.89,29.75,10,3,27,0.09
2013-10-22,49,42,35,37,33,28,90,69,58,29.91,29.87,9,2,17,0.00
2013-10-23,44,38,32,37,33,27,93,81,53,29.97,29.87,9,2,16,0.02
2013-10-24,45,38,35,38,34,32,93,85,63,30.22,29.94,10,2,20,0.08
2013-10-25,50,41,34,38,34,30,93,77,52,30.35,30.00,9,2,18,0.02
2013-10-26,54,49,42,43,37,33,79,64,52,30.02,29.75,16,6,29,0.06
2013-10-27,52,44,37,37,35,32,90,73,53,30.05,29.96,8,2,20,0.00
2013-10-28,48,41,34,40,35,32,93,79,65,30.42,30.03,10,3,15,0.00
2013-10-29,51,43,40,40,34,30,82,71,63,30.44,30.22,7,3,12,0.00
2013-10-30,64,50,36,56,44,33,93,81,58,30.22,29.83,7,1,12,0.49
2013-10-31,64,61,56,62,59,54,95,94,92,29.83,29.07,9,2,18,0.81
2013-11-1,56,48,45,54,45,42,94,90,82,29.66,29.15,10,3,25,0.35
2013-11-2,49,46,42,46,41,37,94,84,63,30.11,29.65,9,3,16,0.05
2013-11-3,50,43,34,39,35,32,93,76,56,30.38,30.11,9,1,14,0.00
2013-11-4,55,46,40,42,35,33,83,67,48,30.39,30.20,9,3,22,0.00
2013-11-5,61,54,51,49,46,42,86,75,64,30.30,30.03,6,2,14,0.00
2013-11-6,57,51,42,55,48,38,94,89,70,30.03,29.71,13,5,26,1.15
2013-11-7,43,39,36,38,31,29,86,73,62,30.18,30.02,13,4,20,0.01
2013-11-8,45,40,33,34,30,26,85,68,53,30.30,30.08,10,2,13,0.00
2013-11-9,52,49,42,43,38,32,75,68,59,30.08,29.79,14,5,27,0.00
2013-11-10,47,42,34,34,32,29,89,68,58,30.27,29.93,17,7,29,0.00
2013-11-11,47,38,28,40,32,22,92,78,68,30.41,30.05,14,6,22,0.24
2013-11-12,34,29,22,25,21,18,89,75,53,30.63,30.41,15,5,22,0.00
2013-11-13,42,32,20,30,24,18,90,71,49,30.55,30.14,13,4,24,0.00
2013-11-14,48,43,34,35,31,26,74,62,51,30.15,29.94,13,6,26,0.00
2013-11-15,51,44,39,38,33,31,79,65,51,29.98,29.93,8,3,16,0.00
2013-11-16,56,49,39,54,43,32,93,82,74,30.00,29.59,9,2,18,0.32
2013-11-17,65,56,43,61,53,37,92,90,72,29.61,29.11,18,6,37,1.40
2013-11-18,46,39,35,39,30,25,76,70,64,30.17,29.51,17,9,31,0.00
2013-11-19,42,35,29,27,25,23,81,66,50,30.37,30.17,13,2,18,0.00
2013-11-20,46,38,30,33,26,22,79,64,40,30.37,30.17,10,2,23,0.01
2013-11-21,51,45,39,44,40,33,93,82,71,30.22,30.14,6,1,12,0.12
2013-11-22,46,37,26,45,33,23,96,84,71,30.41,30.13,16,6,23,0.00
2013-11-23,32,24,18,24,16,8,88,70,51,30.59,30.31,17,8,29,0.00
2013-11-24,25,21,18,18,13,7,89,71,53,30.64,30.34,9,4,16,0.00
2013-11-25,34,28,21,31,21,10,91,77,59,30.35,30.03,10,6,23,0.00
2013-11-26,34,31,24,31,26,16,89,80,64,30.04,29.95,13,4,18,0.00
2013-11-27,28,23,18,19,15,11,82,71,54,30.21,30.03,14,5,20,0.00
2013-11-28,27,23,19,22,19,14,91,85,68,30.44,30.21,6,1,14,0.00
2013-11-29,31,24,14,25,20,11,91,83,71,30.65,30.44,6,0,12,0.08
2013-11-30,44,36,27,34,27,20,79,69,60,30.46,29.98,8,2,18,0.03
2013-12-1,41,37,33,34,30,25,90,76,62,30.02,29.93,9,2,13,0.00
2013-12-2,40,35,30,31,27,23,89,74,58,29.93,29.81,7,1,9,0.00
2013-12-3,35,33,31,33,30,23,93,87,66,29.82,29.72,10,3,16,0.73
2013-12-4,57,44,35,53,42,33,95,93,77,29.77,29.45,10,2,24,0.04
2013-12-5,55,35,26,50,28,18,85,75,66,30.11,29.47,15,7,27,0.00
2013-12-6,27,22,20,19,16,14,88,76,71,30.38,30.11,10,6,14,0.00
2013-12-7,20,17,11,16,12,8,89,80,72,30.59,30.38,9,4,14,0.00
2013-12-8,21,18,12,19,13,9,93,82,67,30.55,29.93,10,4,18,0.00
2013-12-9,28,23,16,26,18,8,92,79,64,30.07,29.81,13,5,25,0.00
2013-12-10,22,17,12,18,12,8,89,80,69,30.15,29.87,12,4,23,0.00
2013-12-11,21,16,11,18,12,7,96,83,72,30.42,30.15,13,4,20,0.00
2013-12-12,25,17,11,20,13,7,88,85,79,30.41,30.12,8,3,18,0.00
2013-12-13,27,25,21,22,19,15,84,77,70,30.20,30.09,13,4,20,0.02
2013-12-14,21,19,16,18,15,12,89,86,78,30.19,29.86,15,8,22,0.00
2013-12-15,23,19,15,20,14,9,90,83,71,30.01,29.79,15,5,20,0.00
2013-12-16,24,15,1,15,9,-2,96,79,59,30.13,29.96,6,1,9,0.05
2013-12-17,31,26,18,28,22,14,92,87,73,29.96,29.80,10,3,20,0.00
2013-12-18,32,28,25,24,20,14,88,72,58,30.08,29.76,12,4,21,0.00
2013-12-19,37,34,27,34,29,25,93,85,73,29.91,29.74,10,4,16,0.03
2013-12-20,33,32,29,31,29,27,93,91,90,29.81,29.68,8,1,12,0.00
2013-12-21,33,31,29,31,29,27,97,93,89,29.81,29.64,0,0,0,0.02
2013-12-22,31,29,25,30,26,23,97,90,88,29.96,29.51,0,0,2,0.05
2013-12-23,26,23,17,24,20,14,92,88,80,30.26,29.96,0,0,1,0.00
2013-12-24,23,17,12,18,13,8,89,86,77,30.45,30.26,0,0,2,0.01
2013-12-25,25,20,12,23,17,9,96,88,84,30.40,30.00,0,0,0,0.00
2013-12-26,26,24,22,24,21,16,92,87,78,30.19,29.98,0,0,0,0.00
2013-12-27,40,32,26,33,28,24,93,87,75,30.24,29.97,10,2,20,0.03
2013-12-28,46,40,31,35,33,28,93,77,62,30.00,29.76,10,4,21,0.10
2013-12-29,43,31,18,33,24,10,90,76,64,30.02,29.66,15,7,21,0.00
2013-12-30,18,16,14,13,9,4,85,74,64,30.24,30.03,9,3,13,0.00
2013-12-31,18,15,12,14,11,8,87,85,78,30.31,30.06,9,4,15,0.00
2014-1-1,13,12,11,8,6,2,84,76,63,30.37,30.23,12,7,17,0.00
2014-1-2,13,9,-6,8,2,-11,84,74,60,30.34,30.17,15,7,21,0.00